Skip Page Navigation
NASA JPL Caltech
NASA Logo - Jet Propulsion Laboratory + View the NASA Portal
+ Center for Near-Earth Object Studies
JPL Home Earth Solar System Stars & Galaxies Technology
JPL Solar System Dynamics
BODIES ORBITS EPHEMERIDES TOOLS PHYSICAL DATA DISCOVERY FAQ SITE MAP
IMPORTANT: The SSD Announcement email list is now available. Major changes are coming in the near future, including possible hostname and/or URL changes. To be notified of such changes, subscribe to this email list.

Please visit this page for more details.


JPL Small-Body Database Browser
Search: [ help ]  
2714 Matti (1938 GC)
Classification: Main-belt Asteroid          SPK-ID: 2002714
Ephemeris | Orbit Diagram | Orbital Elements | Mission Design | Physical Parameters | Discovery Circumstances ]

[ show orbit diagram ]
Orbital Elements at Epoch 2459000.5 (2020-May-31.0) TDB
Reference: JPL 35 (heliocentric ecliptic J2000)
 Element Value Uncertainty (1-sigma)   Units 
e .2053199857156417 3.1129e-08  
a 2.243791673736457 6.0982e-09 au
q 1.783096399336012 6.9885e-08 au
i 6.098114887498548 3.8281e-06 deg
node 134.1439993206793 3.2482e-05 deg
peri 144.6330457726308 3.3657e-05 deg
M 97.0629691960131 9.3927e-06 deg
tp 2458669.503579887723
(2019-Jul-05.00357989)
3.1765e-05 TDB
period 1227.64337653617
3.36
5.0048e-06
1.37e-08
d
yr
n .2932447703304115 1.1955e-09 deg/d
Q 2.704486948136902 7.3503e-09 au
  Orbit Determination Parameters
   # obs. used (total)      2408  
   data-arc span      29871 days (81.78 yr)  
   first obs. used      1938-04-05  
   last obs. used      2020-01-16  
   planetary ephem.      DE431  
   SB-pert. ephem.      SB431-N16  
   condition code      0  
   norm. resid. RMS      .43712  
   source      ORB  
   producer      Otto Matic  
   solution date      2020-Feb-22 16:28:58  

Additional Information
 Earth MOID = .770828 au 
 Jupiter MOID = 2.44495 au 
 T_jup = 3.597 
[ show covariance matrix ]

Ephemeris | Orbit Diagram | Orbital Elements | Mission Design | Physical Parameters | Discovery Circumstances ]

Physical Parameter Table
Parameter Symbol Value Units Sigma Reference Notes
absolute magnitude H 12.9   n/a MPO439090  
rotation period rot_per 9. h n/a LCDB (Rev. 2019-August); Warner et al., 2009 Result based on less than full coverage, so that the period may be wrong by 30 percent or so.
Published Reference List:
[Wisniewski, W.Z.; Michalowski, T.M.; Harris, A.W.; McMillan, R.S. (1997) Icarus 126, 395-449; 1995, Lunar & Planetary Sci. XXVI, 1511-1512.]

2714 Matti (1938 GC)          Discovered 1938-Apr-05 by Alikoski, H. at Turku
Reference: DISCOVERY.DBLast Updated: 2003-08-29

Alternate Designations
 1938 GC = 1962 QF = 1972 ND 
Ephemeris | Orbit Diagram | Orbital Elements | Mission Design | Physical Parameters | Discovery Circumstances ]
ABOUT SSD CREDITS/AWARDS PRIVACY/COPYRIGHT GLOSSARY LINKS
FirstGov 2020-Feb-29 14:24 UT
(server date/time)  
NASA Home Page
Site Manager:   Ryan S. Park
Webmaster  Alan B. Chamberlin